Track COSMOS 1800 now! 10-day predictions COSMOS 1800 is classified as:
1 17144U 86092G 21108.36499631 -.00000007 00000-0 53075-4 0 9997 2 17144 74.0123 84.0856 0046718 77.0525 39.6000 12.57004379578825